Regional Weather Roundup
Issued by NWS

Home | Current Version | Previous Version | Text Only | Print | Product List | Glossary On
Versions: 1 2 3 4 5 6 7 8 9 10 11 12 13 14 15 16 17 18 19 20 21 22 23 24 25 26 27 28 29 30 31 32 33 34 35 36 37 38 39 40 41 42 43 44 45 46 47 48 49 50
198
ASUS44 KJAN 211310
RWRMS

MISSISSIPPI HOURLY WEATHER ROUNDUP
NATIONAL WEATHER SERVICE JACKSON MS
800 AM CDT SUN SEP 21 2014

NOTE: "FAIR: INDICATES FEW OR NO CLOUDS BELOW 12,000 FEET WITH NO
SIGNIFICANT WEATHER AND/OR OBSTRUCTIONS TO VISIBILITY.

MSZ001>002-007>008-010>013-018>021-025>028-034>036-211400-
NORTHWEST MISSISSIPPI

CITY           SKY/WX    TMP DP  RH WIND       PRES   REMARKS
CLARKSDALE     FAIR      72  72 100 CALM      30.04R
CLEVELAND      FAIR      72  70  94 S6        30.04R
GREENWOOD      SUNNY     70  67  90 CALM      30.05R
GREENVILLE     SUNNY     72  68  87 S5        30.04R
GRENADA        FAIR      68  66  94 CALM      30.05R
OLIVE BRANCH   MOSUNNY   68  68 100 S6        30.03R
OXFORD         FAIR      68  64  88 SW5       30.06R
TUNICA         SUNNY     70  68  94 CALM      30.03S
$$

MSZ003>006-009-014>017-022>024-029>033-037>039-211400-
NORTHEAST MISSISSIPPI

CITY           SKY/WX    TMP DP  RH WIND       PRES   REMARKS
COLUMBUS AFB   SUNNY     67  66  96 SE1       30.06R
CORINTH        FAIR      68  64  88 CALM      30.03R
GOLDN TRIANGLE SUNNY     68  63  83 SW5       30.06R
STARKVILLE     FAIR      64  63  94 SW3       30.06R
TUPELO         SUNNY     71  65  81 W5        30.05R
$$

MSZ040-058-211400-
CENTRAL MISSISSIPPI

CITY           SKY/WX    TMP DP  RH WIND       PRES   REMARKS
JACKSON INTL   SUNNY     69  66  90 CALM      30.06R
JACKSON HAWKNS SUNNY     70  67  90 CALM      30.07R
MERIDIAN KEY   SUNNY     66  63  90 CALM      30.07R
MERIDIAN NAS   SUNNY     66  63  90 CALM      30.07R
RAYMOND        FAIR      68  63  83 MISG      30.06S HAZE
VICKSBURG      SUNNY     70  67  90 CALM      30.05R
$$

MSZ059>079-211400-
SOUTH MISSISSIPPI

CITY           SKY/WX    TMP DP  RH WIND       PRES   REMARKS
BROOKHAVEN     FAIR      64  64 100 CALM      30.08R FOG
COLUMBIA       FAIR      66  66 100 CALM      30.05R
HATTIESBURG    SUNNY     67  66  97 NW3       30.07R
MCCOMB         SUNNY     70  66  87 CALM      30.06R
NATCHEZ        SUNNY     70  66  88 CALM      30.06R
PINE BELT      SUNNY     68  63  83 CALM      30.08R
$$

MSZ080>082-211400-
COASTAL MISSISSIPPI

CITY           SKY/WX    TMP DP  RH WIND       PRES   REMARKS
BAY ST LOUIS   SUNNY     72  64  78 N6        30.03R
BILOXI         SUNNY     72  66  82 E7        30.02R
PASCAGOULA     SUNNY     71  67  87 NE5       30.03R
GULFPORT       SUNNY     72  66  81 NE5       30.02R
$$



USA.gov is the U.S. government's official web portal to all federal, state and local government web resources and services.